Regional Weather Roundup
Issued by NWS Upton, NY

Current Version | Previous Version | Graphics & Text | Print | Product List | Glossary Off
Versions: 1 2 3 4 5 6 7 8 9 10 11 12 13 14 15 16 17 18 19 20 21 22 23 24 25 26 27 28 29 30 31 32 33 34 35 36 37 38 39 40 41 42 43 44 45 46 47 48 49 50

000
ASUS41 KOKX 301908
RWROKX

REGIONAL WEATHER ROUNDUP
NATIONAL WEATHER SERVICE NEW YORK NY
300 PM EDT TUE JUN 30 2015

NOTE: "FAIR" INDICATES FEW OR NO CLOUDS BELOW 12,000 FEET WITH NO
SIGNIFICANT WEATHER AND/OR OBSTRUCTIONS TO VISIBILITY.

NYZ071-072-176-178-NJZ106-104-302000-
NEW YORK CITY METRO AREA


CITY           SKY/WX    TMP DP  RH WIND       PRES   REMARKS
CENTRAL PARK   SUNNY     80  58  46 VRB5G21   29.93F
LAGUARDIA APRT PTSUNNY   81  58  45 S21G30    29.91F
KENNEDY INTL   PTSUNNY   79  64  60 S18       29.94F
NEWARK/LIBERTY PTSUNNY   82  62  50 SE13G23   29.89F
BRNX BOT. GARD   N/A     79  57  47 SE13      29.94F
TETERBORO      SUNNY     83  57  41 S14G25    29.89F
$$

NYZ177-179-078>081-302000-
LONG ISLAND NEW YORK

CITY           SKY/WX    TMP DP  RH WIND       PRES   REMARKS
FARMINGDALE    SUNNY     80  57  45 S18       29.94F
ISLIP          MOSUNNY   80  57  45 S14       29.94F
SHIRLEY        SUNNY     79  57  46 S14       29.96F
WESTHAMPTON    SUNNY     78  60  53 S9        29.98F
MONTAUK POINT    N/A     76  63  64 S8        30.00F
$$

NYZ052-065-067-302000-
HUDSON VALLEY

CITY           SKY/WX    TMP DP  RH WIND       PRES   REMARKS
WHITE PLAINS   SUNNY     79  57  46 S14G22    29.93F
NEWBURGH       PTSUNNY   77  61  57 SE18      29.92F
MONTGOMERY     PTSUNNY   72  67  84 NE8       29.90F
POUGHKEEPSIE   PTSUNNY   77  67  71 VRB6      29.91F
ALBANY         CLOUDY    67  63  87 N6        29.95F
$$

NJZ001-105-106-008-010-013-015-019>022-104-302000-
NEW JERSEY

CITY           SKY/WX    TMP DP  RH WIND       PRES   REMARKS
NEWARK/LIBERTY PTSUNNY   82  62  50 SE13G23   29.89F
TETERBORO      SUNNY     83  57  41 S14G25    29.89F
CALDWELL       MOSUNNY   81  61  50 SE16G23   29.89F
MORRISTOWN     PTSUNNY   84  64  51 SE13G23   29.88F
SOMERVILLE     MOSUNNY   82  61  48 S14G21    29.85F
SUSSEX         PTSUNNY   70  65  84 NE5       29.91S
ANDOVER          N/A     74  69  85 CALM      29.89F
TRENTON        MOSUNNY   84  64  50 S15       29.87F
MILLVILLE      SUNNY     82  63  52 S14G26    29.89F
ATLANTIC CITY  MOSUNNY   81  68  64 S15G26    29.91F
WRIGHTSTOWN    SUNNY     84  60  45 S18       29.86F
TOMS RIVER     MOSUNNY   82  59  44 S17G28    29.91F
BELMAR         MOSUNNY   81  63  54 SE15      29.92F
$$

PAZ047>061-062-071-302000-
EASTERN PENNSYLVANIA

CITY           SKY/WX    TMP DP  RH WIND       PRES   REMARKS
PHILADELPHIA   PTSUNNY   85  65  51 S17G25    29.86F
ALLENTOWN      TSTM      70  63  78 N13G47    29.90R VSB 1/2
SCRANTON       RAIN      72  66  81 N8        29.88F
$$

CTZ002-004>006-009-010-012-RIZ004-006-007-MAZ004-011-015-302000-
SOUTHERN NEW ENGLAND
 IN CT

CITY           SKY/WX    TMP DP  RH WIND       PRES   REMARKS
BRADLEY INTL   PTSUNNY   82  59  45 S12       29.93F
HARTFORD       MOSUNNY   81  59  47 S12       29.94F
DANBURY        MOSUNNY   77  56  48 S13G18    29.95F
WTRBRY/OXFORD  PTSUNNY   79  57  47 SW14G20   29.98F
BRIDGEPORT     SUNNY     79  60  52 S10       29.94F
MERIDEN        MOSUNNY   81  57  43 S14G22    29.95F
NEW HAVEN      MOSUNNY   79  61  53 SE10      29.95F
CHESTER        FAIR      79  59  50 S12       29.98F
GROTON         SUNNY     74  62  66 S9        29.97F
WILLIMANTIC    SUNNY     81  58  45 SW10      29.97F

 IN RI

CITY           SKY/WX    TMP DP  RH WIND       PRES   REMARKS
PROVIDENCE     PTSUNNY   81  59  47 SW14G23   29.98S
BLOCK ISLAND   SUNNY     75  63  64 SW10      30.01S
WESTERLY       SUNNY     77  62  59 S10       29.99F

 IN MA

CITY           SKY/WX    TMP DP  RH WIND       PRES   REMARKS
BOSTON         MOSUNNY   71  61  70 E12       29.98S
WORCESTER      MOSUNNY   77  58  51 VRB7      29.99F
WESTFIELD      CLOUDY    78  64  61 CALM      29.94F
PROVINCETOWN   PTSUNNY   81  19  10 S14       29.99S
NANTUCKET      SUNNY     72  64  76 S9        30.02S
$$

ANZ330-335-338-340-345-350-353-355-302000-
COASTAL MARINE OBSERVATIONS


STATION/POSITION TIME  SKY/WX   TEMP    WIND        PRES    VSBY  WAVE
                                AIR SEA DIR/SP/G                  HT/PER
                 (UTC)          (F)     (DEG/KT/KT) (MB)    (MI)  (FT/S)
NY HARB ENTRANCE 1850            70 69  150/ 12/ 14 1013.3          3/ 8
4S FIRE IS       1803               68                N/A           3/ 8
20S FIRE ISLAND  1850            69 68  150/ 10/ 12 1013.9          3/ 8
GREAT SOUTH BAY  1815            72 74  200/ 10/ 14   N/A
23SW MTP         1850            69 67  170/  6/  8 1015.0          4/ 8
HUDSON CANYON    NOT AVBL
KINGS POINT      1800            75 66  190/ 15/ 19 1013.2
CENTRAL LI SOUND NOT AVBL
EASTERN LI SOUND 1800            69     180/  8/ 10   N/A
ROBBINS REEF     1800            74     150/ 23/ 28 1012.0
$$


>>>>>>>>>>>>>>>>>>>>>>>>>>>> KEY <<<<<<<<<<<<<<<<<<<<<<<<<<<
>                                                          <
>     SKY/WX - SKY CONDITION/PRESENT WEATHER               <
>     TMP    - TEMPERATURE IN FAHRENHEIT                   <
>     DP     - DEWPOINT IN FAHRENHEIT                      <
>     RH     - RELATIVE HUMIDITY IN PERCENT                <
>     WIND   - DIRECTION AND SPEED IN MPH                  <
>     PRES   - MEAN SEA LEVEL PRESSURE IN INCHES OF HG     <
>     WCI    - WIND CHILL INDEX                            <
>     VSB    - VISIBILITY IN MILES                         <
>     HX     - HEAT INDEX                                  <
>     TC     - TEMPERATURE IN CELSIUS                      <
>     VRB    - VARIABLE WIND DIRECTION                     <
>                                                          <
>>>>>>>>>>>>>>>>>>>>>>>>>>>> KEY <<<<<<<<<<<<<<<<<<<<<<<<<<<




USA.gov is the U.S. government's official web portal to all federal, state and local government web resources and services.